Volver al catálogo

CZ-3A DEB

ActivoHEO
NORAD 40157·DEBRIS·🇨🇳 China

Lanzado Feb 2, 2007 desde Xichang Satellite Launch Center

Loading…

Próximos Pases (próximas 24 horas)

TLE

ObsoletoSource: Space-Track

Época: Aug 18, 2026, 06:06 UTC

1 40157U 07003AR  26230.25445826 -.00000659  00000-0 -40061-1 0  9990
2 40157  25.2680 338.4524 7436077  72.1256 352.8856  1.83711063109443

Sigue CZ-3A DEB en tiempo real con AllMySat

Download on the App Store